www.pogodaiklimat.ru
ПОГОДА в Дубровник аэропорту
Время
(UTC), дата
18 22.09
21 22.09
00 23.09
03 23.09
06 23.09
09 23.09
12 23.09
15 23.09
18 23.09
21 23.09
00 24.09
03 24.09
06 24.09
09 24.09
12 24.09
15 24.09
18 24.09
21 24.09
00 25.09
03 25.09
06 25.09
09 25.09
12 25.09
15 25.09
18 25.09
21 25.09
00 26.09
03 26.09
06 26.09
09 26.09
12 26.09
15 26.09
18 26.09
21 26.09
00 27.09
03 27.09
06 27.09
09 27.09
12 27.09
15 27.09
18 27.09
21 27.09
00 28.09
03 28.09
06 28.09
09 28.09
12 28.09
15 28.09
18 28.09
21 28.09
00 29.09
03 29.09
06 29.09
09 29.09
12 29.09
15 29.09
Ветер
(напр.,м/с)
Видим. Явления Облачность Т
(С)
Тd
(С)
f
(%)
Тe
(С)
Тes
(С)
Комфортность P
(гПа)
Po
(гПа)
Тmin
(С)
Tmax
(С)
R
(мм)
R24
(мм)
S
(см)
В 6 20 км 8/3 700 м
[Cu med, cong Ac As]
+22.1 +19.1 83 +28 +28 душно 1014.9 996.7 +26.1
В 5
{23}
20 км {гроза, ливн. дождь} 9/3 1080 м
[Cu med, cong Ac As]
+19.1 +15.4 79 +20 +20 1014.7 996.2
С 6
{23}
25 км {гроза, ливн. дождь} 6/3 1380 м
[Sc Ac As]
+19.7 +15.4 76 +21 +21 комфорт 1013.8 995.4 3
В 6 20 км гроза, ливневой дождь 6/1 600 м
[Cb cap Ac As]
+19.3 +16.2 82 +21 +21 комфорт 1013.0 994.6
В 4 25 км {гроза, ливн. дождь} 8/5 1080 м
[Cu Sc Ac As]
+18.7 +16.6 88 +20 +20 1013.3 994.9 +16.3 6 5.8
З 7 12 км гроза, ливневой дождь 9/8 90 м
[Cb cap Ac lent Ci ing]
+18.0 +15.8 87 +17 +18 1014.6 996.1
В 5
{20}
20 км в посл. час гроза {ливн. дождь} 6/4 1000 м
[Cu med, cong Ci ing]
+16.9 +15.7 93 +16 +19 1013.7 995.1 62 67.6
ЮВ 6 30 км гроза без осадков 5/4 900 м
[Cb cap Ac lent Ci ing]
+21.5 +17.3 77 +26 +26 душно 1012.4 994.2
Ю 8 6000 м гроза, ливневой дождь 10/6 800 м
[Cb cap As op]
+18.5 +14.7 79 +18 +18 1012.7 994.2 +22.8 62
В 3 20 км слаб. дождь {гроза} 10/1 1300 м
[Sc Ac As]
+18.6 +15.7 83 +20 +20 1012.6 994.2
В 2 30 км {гроза, дождь} 10/6 1500 м
[Sc Ac As]
+17.8 +14.9 83 +18 +18 1012.6 994.1 2
В 4 30 км 10/8 1200 м
[Sc Ac As]
+17.2 +15.3 89 +17 +17 1012.9 994.4
В 4 30 км гроза без осадков 5/3 900 м
[Cb cap Ac As Ci sp]
+18.8 +14.9 78 +20 +20 1013.3 994.8 +16.7 2 64.2
ЮВ 4 50 км 3/1 1050 м
[Cu med, cong Ac trans Ci sp]
+22.0 +15.2 65 +26 +30 душно 1014.1 995.8
Ю 5 50 км 1/1 1000 м
[Cu med, cong Ac trans]
+22.7 +16.1 66 +27 +32 душно 1013.8 995.6 2.4
Ю 4 50 км 8/1 900 м
[Cu hum Ac trans Ci fib]
+22.0 +16.8 72 +26 +27 душно 1013.6 995.4
В 2 40 км ясно +20.2 +17.3 83 +24 +24 комфорт 1013.7 995.4 +23.4
В 4 30 км ясно +18.2 +16.0 87 +18 +18 1013.8 995.3
В 5 30 км 3/0
[Ci fib]
+18.9 +14.5 76 +20 +20 1012.6 994.2
В 5 30 км 3/3 1500 м
[Sc]
+18.2 +15.0 82 +18 +18 1010.4 992.0
В 6 30 км 9/6 450 м
[Cu Sc Ac As]
+20.0 +14.9 72 +22 +22 комфорт 1008.8 990.5 +17.5
ЮВ 12 10 км слаб. дождь 10/9 540 м
[Cu Sc Ac As]
+21.1 +18.5 85 +25 +25 комфорт 1006.4 988.3
ЮВ 8 12 км {гроза, дождь} 10/9 180 м
[Sc Ac As]
+23.4 +21.8 91 +32 +32 очень
душно
1004.4 986.5 0.6 0.6
ЮВ 8 14 км слаб. дождь 10/8 300 м
[Sc Ac As]
+23.6 +20.7 84 +29 +29 душно 1001.6 983.7
В 6
{19}
20 км {гроза, дождь} 9/1 1000 м
[Sc Ac As]
+20.3 +17.5 84 +23 +23 комфорт 1000.4 982.3 +24.0 2
Ю 7 20 км {гроза} 9/5 180 м
[Sc Ac As]
+23.6 +19.7 79 +29 +29 душно 997.8 980.0
ЮЗ 10 25 км {гроза, дождь} 9/5 700 м
[Sc Ac As]
+21.7 +14.8 65 +25 +25 комфорт 997.1 979.1 0.0
З 3 25 км 10/5 900 м
[Sc Ac As]
+18.5 +11.9 65 +19 +19 997.2 979.0
ЮЗ 7 20 км в посл. час дождь 9/6 700 м
[Cu med, cong Ac trans]
+18.5 +10.3 59 +18 +18 996.3 978.1 +18.1 0.0 2.2
ЮЗ 8 25 км 9/6 1080 м
[Cu Sc Ac As Cs]
+18.9 +7.4 47 +19 +19 997.4 979.2
ЮЗ 6 25 км в посл. час дождь 9/6 480 м
[Cu med, cong Ac trans Cs]
+19.0 +9.5 54 +19 +20 997.3 979.1 0.4 2.0
СЗ 6 20 км в посл. час гроза {дождь} 8/3 1500 м
[Sc Ac As Cs]
+14.3 +8.1 66 +12 +13 1000.1 981.5
В 4 35 км {гроза, дождь} 9/9 900 м
[Cu Sc]
+13.8 +7.7 67 +12 +12 1002.1 983.5 +19.5 0.6
В 5 30 км 4/1 1500 м
[Sc Ac trans]
+12.3 +8.8 79 +10 +10 1004.6 985.8
В 7 40 км в посл. час дождь {гроза} 8/1 2000 м
[Sc Ac und]
+12.1 +10.1 88 +9 +9 1006.1 987.3 5
СВ 9 20 км слаб. ливневой дождь, в посл. час гроза 10/9 750 м
[Cu Sc Ac As]
+10.7 +8.1 84 +7 +7 1006.7 987.8
В 6 30 км в посл. час дождь {гроза} 9/8 1000 м
[Cu Sc Ac As]
+13.7 +11.1 84 +12 +12 1007.2 988.5 +9.9 17 18.0
Ю 2 25 км в посл. час ливневой дождь 9/4 1050 м
[Cu Sc Ac As]
+16.1 +12.4 79 +16 +18 1009.6 991.0
ЮВ 7 30 км {ливн. дождь, дождь} 6/5 1200 м
[Cu med, cong Ac trans]
+20.8 +12.4 59 +23 +24 комфорт 1009.4 991.1 2 20.0
ЮВ 12 40 км 9/1 1050 м
[Cu med, cong Ac und]
+20.5 +12.8 61 +22 +22 комфорт 1008.0 989.7
ЮВ 12 12 км дождь {гроза} 10/8 750 м
[Cu Sc Ac As]
+20.8 +15.9 74 +23 +23 комфорт 1007.4 989.2 +21.3 2
ЮВ 13-19
{19}
5000 м гроза, ливневой дождь 10/9 180 м
[Cb cap Ac As]
+18.8 +17.0 89 +19 +19 1006.9 988.6
ЮВ 11
{20}
12 км {гроза, дождь} 10/9 180 м
[Frnb Ac As]
+19.0 +17.6 92 +19 +19 1007.1 988.8 10
Ю 6 20 км 6/4 480 м
[Frnb Ac As]
+20.0 +15.3 74 +22 +22 комфорт 1006.2 988.0
ЮЗ 5 35 км 5/5 1110 м
[Cu med, cong]
+19.7 +11.8 60 +21 +21 комфорт 1008.2 989.9 +17.0 10 12.2
ЮЗ 4 45 км 10/3 1200 м
[Cu med, cong Ac As]
+19.5 +11.3 59 +21 +22 комфорт 1011.3 992.9
В 4 40 км в посл. час дождь {гроза} 10/8 1500 м
[Sc Ac As]
+15.4 +14.1 92 +14 +15 1013.2 994.5 5 14.4
В 4 40 км {дождь} 10/6 2000 м
[Sc Ac As]
+17.1 +12.7 75 +17 +17 1012.0 993.4
В 4 30 км в посл. час дождь {гроза} 9/8 800 м
[Cu Sc Ac As]
+15.5 +12.6 83 +15 +15 1012.0 993.3 +20.4 5
Ю 4 30 км 9/8 700 м
[Sc Ac As]
+17.6 +13.0 74 +17 +17 1012.5 994.0
СВ 3 25 км гроза без осадков {ливн. дождь} 9/8 800 м
[Cb cap Ac As]
+15.8 +14.7 93 +15 +15 1012.2 993.6 10
В 3 8000 м дождь {гроза} 10/4 1200 м
[Sc As op]
+13.8 +11.2 84 +13 +13 1012.9 994.1
В 3 40 км {гроза, дождь} 1/1 1000 м
[Cu med, cong]
+14.5 +12.5 88 +14 +14 1013.4 994.6 +13.5 24 28.8
З 3 40 км 1/1 840 м
[Cu med, cong]
+19.5 +13.5 68 +21 +27 комфорт 1014.8 996.3
З 7 40 км 1/1 1000 м
[Cu med, cong]
+20.6 +11.9 57 +22 +25 комфорт 1015.0 996.6 24.4
СЗ 7 40 км 4/1 1200 м
[Cu med, cong Ac trans]
+19.3 +10.3 56 +20 +20 1014.6 996.1
Местоположение метеостанции Дубровник аэропорт (Хорватия): широта 42.57 долгота 18.27 высота над уровнем моря 165 м.
В архиве по умолчанию представлена погода в Дубровник аэропорту за последнюю неделю. Архивные данные за месяц целиком и за предыдущие месяцы, начиная с января 2011 года, Вы можете получить, выбрав интересующий диапазон дат из раскрывающегося списка и нажав кнопку "Найти!".
*Определитесь, кто Вы:
Внимание! Время в таблицах - всемирное. Для получения местного времени необходимо прибавить поправку, которая равна 1 ч.
Смотрите также архив погоды в соседних городах и на ближайших метеорологических станциях:
Партнеры нашего сайта:      
Пояснения к столбцам:
  • Ветер - указаны скорость ветра в м/с - средняя за 10 мин, порывы в срок и между сроками (в фигурных скобках) и направление, откуда дует ветер: С - северный,
  • СВ - северо-восточный, В - восточный, ЮВ - юго-восточный, Ю - южный, ЮЗ - юго-западный, З - западный, СЗ - северо-западный.
  • Видимость - горизонтальная дальность видимости в метрах или километрах. При видимости от 1 до 10 км при отсутствии осадков обычно наблюдается дымка, при ухудшении видимости до 1 км и менее - туман. В сухую погоду видимость может ухудшаться дымом, пылью или мглою.
  • Явления - указаны атмосферные явления, наблюдавшиеся в срок или в последний час перед сроком; фигурными скобками обозначены явления, наблюдавшиеся между сроками (за 1-3 часа до срока); квадратными скобками обозначены град или гололедные отложения с указанием их диаметра в мм.
  • Облачность - указаны через наклонную черту общая и нижняя облачность в баллах и высота нижней границы облаков в метрах; квадратными скобками обозначены формы облаков: Ci - перистые, Cs - перисто-слоистые, Cc - перисто-кучевые, Ac - высококучевые, As - высокослоистые, Sc - слоисто-кучевые, Ns - слоисто-дождевые, Cu - кучевые, Cb - кучево-дождевые. Подробнее классификацию облаков см. в Атласе облаков (PDF).
  • T - Температура воздуха - температура, измеренная на высоте 2 м над землей.
  • Td - Температура точки росы - температура, при понижении до которой содержащийся в воздухе водяной пар достигнет насыщения.
  • f - Относительная влажность воздуха - влажноcть воздуха, измеренная на высоте 2 м над землей.
  • Te - Эффективная температура - температура, которую ощущает одетый по сезону человек в тени. Характеристика душности погоды. При расчете учитывается влияние влажности воздуха и скорости ветра на теплоощущения человека.
  • Tes - Эффективная температура на солнце - температура, которую ощущает человек, с поправкой на солнечный нагрев. Характеристика знойности погоды. Зависит от высоты солнца над горизонтом, облачности и скорости ветра. Ночью, в пасмурную погоду, а также при ветре 12 м/с и более поправка равна нулю.
  • P - Атмосферное давление - приведенное к уровню моря атмосферное давление.
  • Po - Атмосферное давление - измеренное на уровне метеостанции атмосферное давление.
  • Tmin - Минимальная температура - минимум температуры воздуха на высоте 2 м над землей.
  • Tmax - Максимальная температура - максимум температуры воздуха на высоте 2 м над землей.
  • R - Количество осадков - Количество выпавших осадков за период времени, мм. При наведении курсора мыши на число - период времени, за который выпало указанное количество осадков.
  • R24 - Количество осадков - Количество выпавших осадков за 24 часа, мм.
  • S - Снежный покров - Высота снежного покрова, см. При наведении курсора мыши на число - состояние снежного покрова и степень покрытия местности в баллах.